www.pogodaiklimat.ru

Погода и климат >> Архив погоды >> КНДР >> Хыйчхон


ПОГОДА в Хыйчхоне

  • Прогноз погоды в Хыйчхоне
  • Монитор погоды в Хыйчхоне

АРХИВ ПОГОДЫ в Хыйчхоне

Время (UTC), дата Ветер
(напр.,м/с)
 
Видим.   Явления Облачность Т
(С)
Тd
(С)
f
(%)
Тe
(С)
Тes
(С)
Комфортность P
(гПа)
Po
(гПа)
Тmin
(С)
Tmax
(С)
R
(мм)
R24
(мм)
S
(см)
03 12.02 штиль 0 20 км ясно -7.1 -10.3 78 -8 +3 1036.8 1016.6
06 12.02 ЮВ 2 20 км 10/0
[Ci sp]
-2.6 -10.7 54 -6 -2 1034.2 1014.4
09 12.02 штиль 0 20 км ясно -3.1 -13.2 46 -3 -3 1033.1 1013.2
12 12.02 штиль 0 20 км ясно -9.3 -13.2 73 -10 -10 1034.3 1014.0 0.0
15 12.02 СЗ 1 20 км ясно -12.7 -15.0 83 -15 -15 1035.5 1014.9
18 12.02 штиль 0 20 км ясно -14.6 -17.1 81 -15 -15 1035.7 1014.9
21 12.02 штиль 0 20 км ясно -16.5 -18.7 83 -17 -17 1035.7 1014.8
00 13.02 штиль 0 20 км ясно -16.0 -18.7 80 -16 -13 1037.6 1016.7 -17.8 700
03 13.02 штиль 0 20 км ясно -6.0 -10.3 72 -7 +4 1035.5 1015.4
06 13.02 ЮЗ 1 20 км ясно -1.9 -10.7 51 -3 +2 1033.3 1013.5
09 13.02 С 1 20 км ясно -4.5 -13.8 48 -6 -6 1033.9 1013.9
12 13.02 штиль 0 20 км ясно -10.0 -15.7 63 -10 -10 1035.1 1014.7 -0.5
15 13.02 штиль 0 20 км ясно -12.6 -15.7 78 -13 -13 1036.7 1016.1
18 13.02 штиль 0 20 км ясно -15.0 -17.8 79 -15 -15 1037.2 1016.4
21 13.02 штиль 0 20 км ясно -16.8 -19.5 80 -17 -17 1037.0 1016.0
00 14.02 штиль 0 20 км 3/0
[Ci sp]
-16.1 -18.7 80 -16 -14 1037.8 1016.9 -18.1 700
03 14.02 штиль 0 20 км 3/0
[Ci sp]
-4.7 -9.8 67 -5 +5 1035.1 1015.1
06 14.02 штиль 0 20 км ясно +2.4 -7.1 49 +2 +8 1031.4 1012.0
18 14.02 штиль 0 20 км 10/10 600 м
[Sc diur, vesp]
-5.5 -8.2 81 -6 -6 1027.8 1007.9
00 15.02 штиль 0 20 км снег 10/0 600 м
[As op]
-5.6 -8.2 82 -6 -6 1025.4 1005.5 -6.1 0.3 600
06 15.02 штиль 0 15 км {снег} 10/10 600 м
[Sc diur, vesp]
-1.3 -3.8 83 -2 -2 1020.6 1001.1 0.2
12 15.02 штиль 0 20 км 6/4 600 м
[Sc diur, vesp Ci sp]
-4.5 -7.4 80 -5 -5 1021.8 1002.1 +0.3 0.2
18 15.02 штиль 0 20 км 10/8 600 м
[Sc diur, vesp Ci sp]
-10.8 -13.2 82 -11 -11 1024.7 1004.4
21 15.02 штиль 0 20 км 10/8 600 м
[Sc diur, vesp Ci sp]
-10.8 -13.2 82 -11 -11 1024.8 1004.5
00 16.02 штиль 0 3800 м дымка 10/10 600 м
[Sc diur, vesp]
-10.2 -12.7 82 -11 -11 1026.1 1005.9 -11.6 700
03 16.02 штиль 0 15 км ясно -2.0 -5.0 80 -3 +8 1025.1 1005.5
06 16.02 ЮВ 1 15 км ясно -0.1 -5.7 66 -2 +4 1022.7 1003.3
09 16.02 З 2 15 км ясно -0.4 -5.7 67 -4 -4 1022.7 1003.2
12 16.02 штиль 0 15 км ясно -5.1 -9.0 74 -6 -6 1023.1 1003.3 +1.8
15 16.02 штиль 0 15 км ясно -9.6 -12.2 81 -10 -10 1025.1 1004.9
18 16.02 штиль 0 20 км ясно -12.0 -14.7 80 -12 -12 1026.9 1006.5
21 16.02 штиль 0 20 км ясно -13.8 -16.5 80 -14 -14 1027.9 1007.3
00 17.02 штиль 0 20 км ясно -13.6 -15.7 84 -14 -11 1028.7 1008.1 -14.9 700
03 17.02 штиль 0 20 км ясно -2.4 -7.1 70 -3 +8 1027.3 1007.6
06 17.02 ЮВ 2 20 км ясно +2.2 -7.1 50 -0 +5 1024.2 1004.9
09 17.02 ЮЗ 3 20 км ясно +2.2 -7.8 48 -1 -1 1023.7 1004.4
12 17.02 штиль 0 20 км ясно -3.5 -7.4 74 -4 -4 1025.5 1005.8 +4.3
15 17.02 штиль 0 20 км ясно -7.3 -9.8 82 -8 -8 1027.8 1007.7
18 17.02 штиль 0 20 км ясно -9.8 -11.7 86 -10 -10 1028.1 1007.8
21 17.02 штиль 0 20 км ясно -11.6 -13.8 84 -12 -12 1028.3 1007.9
00 18.02 штиль 0 20 км 3/0
[Ci sp]
-10.9 -13.2 83 -11 -8 1028.4 1008.1 -12.6 600
03 18.02 штиль 0 20 км 8/0
[Ci sp]
-1.7 -6.4 70 -3 +7 1027.2 1007.6
06 18.02 ЮЗ 2 20 км 10/0
[Ci sp]
+3.8 -4.7 54 +2 +6 1024.0 1004.8
09 18.02 штиль 0 20 км 10/10 600 м
[Sc diur, vesp]
+2.4 -5.0 58 +2 +2 1024.0 1004.7
12 18.02 штиль 0 20 км 10/10 600 м
[Sc diur, vesp]
+0.2 -4.4 71 -1 -1 1024.0 1004.6 +5.8
15 18.02 штиль 0 20 км 10/10 600 м
[Sc diur, vesp]
-0.8 -3.3 83 -2 -2 1023.7 1004.2
18 18.02 штиль 0 20 км 10/10 600 м
[Sc diur, vesp]
-1.2 -3.8 82 -2 -2 1022.4 1002.9
21 18.02 штиль 0 20 км 10/10 600 м
[Sc diur, vesp]
-1.6 -4.1 83 -3 -3 1021.2 1001.7
00 19.02 штиль 0 20 км 10/0 1500 м
[Ac trans]
-1.4 -3.8 84 -3 -1 1019.8 1000.3 -2.0 500

 

Местоположение метеостанции Хыйчхон (КНДР): широта 40.17 долгота 126.25 высота над уровнем моря 155 м.

В архиве по умолчанию представлена погода в Хыйчхоне за последнюю неделю. Архивные данные за месяц целиком и за предыдущие месяцы, начиная с января 2011 года, Вы можете получить, выбрав интересующий диапазон дат из раскрывающегося списка и нажав кнопку "Ввод!".


*Определитесь, кто Вы:
робот инопланетянин человек

Внимание! Время в таблицах - всемирное. Для получения местного времени необходимо прибавить поправку, которая равна 9 ч.

Смотрите также архив погоды в соседних городах и на ближайших метеорологических станциях:

Погода в Анджу (КНДР) (80 км)
Погода в Кусонге (КНДР) (88 км)
Погода в Джангджине (КНДР) (88 км)
Погода в Канге (КНДР) (94 км)
Погода в Цзиане (Цзяньси, Китай) (104 км)
Погода в Янгдоке (КНДР) (111 км)
Погода в Хамхыне (КНДР) (114 км)
Погода на Плотине Сапунг (КНДР) (116 км)
Погода в Пхеньяне (КНДР) (133 км)
Погода в Куаньдяне (Ляонин, Китай) (139 км)

Пояснения к столбцам:

Ветер - указаны скорость ветра в м/с - средняя за 10 мин, порывы в срок и между сроками (в фигурных скобках) и направление, откуда дует ветер: С - северный, СВ - северо-восточный, В - восточный, ЮВ - юго-восточный, Ю - южный, ЮЗ - юго-западный, З - западный, СЗ - северо-западный.
Видимость - горизонтальная дальность видимости в метрах или километрах. При видимости от 1 до 10 км при отсутствии осадков обычно наблюдается дымка, при ухудшении видимости до 1 км и менее - туман. В сухую погоду видимость может ухудшаться дымом, пылью или мглою.
Явления - указаны атмосферные явления, наблюдавшиеся в срок или в последний час перед сроком; фигурными скобками обозначены явления, наблюдавшиеся между сроками (за 1-3 часа до срока); квадратными скобками обозначены град или гололедные отложения с указанием их диаметра в мм.
Облачность - указаны через наклонную черту общая и нижняя облачность в баллах и высота нижней границы облаков в метрах; квадратными скобками обозначены формы облаков: Ci - перистые, Cs - перисто-слоистые, Cc - перисто-кучевые, Ac - высококучевые, As - высокослоистые, Sc - слоисто-кучевые, Ns - слоисто-дождевые, Cu - кучевые, Cb - кучево-дождевые. Подробнее классификацию облаков см. в Атласе облаков (PDF).
T - Температура воздуха - температура, измеренная на высоте 2 м над землей.
Td - Температура точки росы - температура, при понижении до которой содержащийся в воздухе водяной пар достигнет насыщения.
f - Относительная влажность воздуха - влажноcть воздуха, измеренная на высоте 2 м над землей.
Te - Эффективная температура - температура, которую ощущает одетый по сезону человек в тени. Характеристика душности погоды. При расчете учитывается влияние влажности воздуха и скорости ветра на теплоощущения человека.
Tes - Эффективная температура на солнце - температура, которую ощущает человек, с поправкой на солнечный нагрев. Характеристика знойности погоды. Зависит от высоты солнца над горизонтом, облачности и скорости ветра. Ночью, в пасмурную погоду, а также при ветре 12 м/с и более поправка равна нулю.
P - Атмосферное давление - приведенное к уровню моря атмосферное давление.
Po - Атмосферное давление - измеренное на уровне метеостанции атмосферное давление.
Tmin - Минимальная температура - минимум температуры воздуха на высоте 2 м над землей.
Tmax - Максимальная температура - максимум температуры воздуха на высоте 2 м над землей.
R - Количество осадков - Количество выпавших осадков за период времени, мм. При наведении курсора мыши на число - период времени, за который выпало указанное количество осадков.
R24 - Количество осадков - Количество выпавших осадков за 24 часа, мм.
S - Снежный покров - Высота снежного покрова, см. При наведении курсора мыши на число - состояние снежного покрова и степень покрытия местности в баллах.